Data supplied by UK-AIR on 5/4/2008
All Data GMT hour ending 
Status: R =Ratified P=Provisional,P*=As supplied
,,Strath Vaich,,,,,,,,,,,,,,,,,,,,,,,
Date,time,"Nitric oxide",status,unit,"Nitrogen dioxide",status,unit,"Nitrogen oxides as nitrogen dioxide",status,unit,"Ozone",status,unit,"Sulphur dioxide",status,unit
 
01-01-1991,01:00,0.1,R,ugm-3,0.2,R,ugm-3,0.4,R,ugm-3,78,R,ugm-3,,,
01-01-1991,02:00,0.0,R,ugm-3,0.4,R,ugm-3,0.4,R,ugm-3,76,R,ugm-3,0.0,R,ugm-3
01-01-1991,03:00,0.0,R,ugm-3,0.4,R,ugm-3,0.4,R,ugm-3,76,R,ugm-3,0.0,R,ugm-3
01-01-1991,04:00,0.1,R,ugm-3,0.2,R,ugm-3,0.4,R,ugm-3,74,R,ugm-3,0.0,R,ugm-3
01-01-1991,05:00,0.1,R,ugm-3,0.4,R,ugm-3,0.6,R,ugm-3,76,R,ugm-3,0.0,R,ugm-3
01-01-1991,06:00,0.0,R,ugm-3,0.4,R,ugm-3,0.4,R,ugm-3,72,R,ugm-3,0.0,R,ugm-3
01-01-1991,07:00,0.0,R,ugm-3,0.6,R,ugm-3,0.6,R,ugm-3,72,R,ugm-3,0.0,R,ugm-3
01-01-1991,08:00,0.1,R,ugm-3,0.6,R,ugm-3,0.8,R,ugm-3,72,R,ugm-3,0.0,R,ugm-3
01-01-1991,09:00,0.1,R,ugm-3,0.6,R,ugm-3,0.8,R,ugm-3,74,R,ugm-3,0.0,R,ugm-3
01-01-1991,10:00,0.1,R,ugm-3,0.6,R,ugm-3,0.8,R,ugm-3,74,R,ugm-3,0.0,R,ugm-3
01-01-1991,11:00,0.1,R,ugm-3,1.3,R,ugm-3,1.5,R,ugm-3,68,R,ugm-3,0.3,R,ugm-3
01-01-1991,12:00,0.3,R,ugm-3,1.1,R,ugm-3,1.5,R,ugm-3,66,R,ugm-3,0.0,R,ugm-3
01-01-1991,13:00,0.1,R,ugm-3,1.0,R,ugm-3,1.1,R,ugm-3,68,R,ugm-3,0.0,R,ugm-3
01-01-1991,14:00,0.1,R,ugm-3,1.0,R,ugm-3,1.1,R,ugm-3,68,R,ugm-3,0.0,R,ugm-3
01-01-1991,15:00,0.1,R,ugm-3,1.0,R,ugm-3,1.1,R,ugm-3,70,R,ugm-3,0.0,R,ugm-3
01-01-1991,16:00,0.1,R,ugm-3,1.0,R,ugm-3,1.1,R,ugm-3,68,R,ugm-3,0.0,R,ugm-3
01-01-1991,17:00,0.1,R,ugm-3,1.0,R,ugm-3,1.1,R,ugm-3,70,R,ugm-3,0.0,R,ugm-3
01-01-1991,18:00,0.0,R,ugm-3,1.1,R,ugm-3,1.1,R,ugm-3,70,R,ugm-3,0.0,R,ugm-3
01-01-1991,19:00,0.1,R,ugm-3,1.0,R,ugm-3,1.1,R,ugm-3,68,R,ugm-3,0.0,R,ugm-3
01-01-1991,20:00,0.0,R,ugm-3,0.8,R,ugm-3,0.8,R,ugm-3,62,R,ugm-3,0.0,R,ugm-3
01-01-1991,21:00,0.0,R,ugm-3,0.4,R,ugm-3,0.4,R,ugm-3,70,R,ugm-3,0.0,R,ugm-3
01-01-1991,22:00,0.1,R,ugm-3,0.4,R,ugm-3,0.6,R,ugm-3,70,R,ugm-3,0.0,R,ugm-3
01-01-1991,23:00,0.1,R,ugm-3,0.4,R,ugm-3,0.6,R,ugm-3,70,R,ugm-3,0.0,R,ugm-3
01-01-1991,24:00,0.1,R,ugm-3,0.8,R,ugm-3,1.0,R,ugm-3,62,R,ugm-3,0.0,R,ugm-3
02-01-1991,01:00,0.1,R,ugm-3,0.8,R,ugm-3,1.0,R,ugm-3,58,R,ugm-3,0.3,R,ugm-3
02-01-1991,02:00,0.0,R,ugm-3,0.8,R,ugm-3,0.8,R,ugm-3,64,R,ugm-3,0.3,R,ugm-3
02-01-1991,03:00,0.1,R,ugm-3,0.6,R,ugm-3,0.8,R,ugm-3,70,R,ugm-3,0.3,R,ugm-3
02-01-1991,04:00,0.1,R,ugm-3,0.6,R,ugm-3,0.8,R,ugm-3,76,R,ugm-3,0.3,R,ugm-3
02-01-1991,05:00,0.1,R,ugm-3,0.6,R,ugm-3,0.8,R,ugm-3,74,R,ugm-3,0.3,R,ugm-3
02-01-1991,06:00,0.1,R,ugm-3,0.6,R,ugm-3,0.8,R,ugm-3,76,R,ugm-3,0.3,R,ugm-3
02-01-1991,07:00,0.1,R,ugm-3,0.6,R,ugm-3,0.8,R,ugm-3,78,R,ugm-3,0.3,R,ugm-3
02-01-1991,08:00,0.1,R,ugm-3,0.6,R,ugm-3,0.8,R,ugm-3,76,R,ugm-3,0.3,R,ugm-3
02-01-1991,09:00,0.1,R,ugm-3,0.6,R,ugm-3,0.8,R,ugm-3,74,R,ugm-3,0.3,R,ugm-3
02-01-1991,10:00,0.1,R,ugm-3,0.8,R,ugm-3,1.0,R,ugm-3,72,R,ugm-3,0.3,R,ugm-3
02-01-1991,11:00,0.1,R,ugm-3,1.0,R,ugm-3,1.1,R,ugm-3,66,R,ugm-3,0.5,R,ugm-3
02-01-1991,12:00,0.1,R,ugm-3,1.0,R,ugm-3,1.1,R,ugm-3,66,R,ugm-3,0.3,R,ugm-3
02-01-1991,13:00,0.1,R,ugm-3,0.8,R,ugm-3,1.0,R,ugm-3,64,R,ugm-3,0.3,R,ugm-3
02-01-1991,14:00,0.1,R,ugm-3,0.6,R,ugm-3,0.8,R,ugm-3,70,R,ugm-3,0.3,R,ugm-3
02-01-1991,15:00,0.1,R,ugm-3,0.6,R,ugm-3,0.8,R,ugm-3,78,R,ugm-3,0.3,R,ugm-3
02-01-1991,16:00,0.1,R,ugm-3,0.4,R,ugm-3,0.6,R,ugm-3,80,R,ugm-3,0.3,R,ugm-3
02-01-1991,17:00,0.1,R,ugm-3,0.4,R,ugm-3,0.6,R,ugm-3,80,R,ugm-3,0.3,R,ugm-3
02-01-1991,18:00,0.1,R,ugm-3,0.4,R,ugm-3,0.6,R,ugm-3,76,R,ugm-3,0.3,R,ugm-3
02-01-1991,19:00,0.1,R,ugm-3,0.4,R,ugm-3,0.6,R,ugm-3,72,R,ugm-3,0.3,R,ugm-3
02-01-1991,20:00,0.1,R,ugm-3,0.4,R,ugm-3,0.6,R,ugm-3,68,R,ugm-3,0.3,R,ugm-3
02-01-1991,21:00,0.1,R,ugm-3,0.2,R,ugm-3,0.4,R,ugm-3,68,R,ugm-3,0.3,R,ugm-3
02-01-1991,22:00,0.1,R,ugm-3,0.4,R,ugm-3,0.6,R,ugm-3,68,R,ugm-3,0.3,R,ugm-3
02-01-1991,23:00,0.0,R,ugm-3,0.4,R,ugm-3,0.4,R,ugm-3,70,R,ugm-3,0.3,R,ugm-3
02-01-1991,24:00,0.0,R,ugm-3,0.4,R,ugm-3,0.4,R,ugm-3,78,R,ugm-3,0.3,R,ugm-3
03-01-1991,01:00,0.1,R,ugm-3,0.2,R,ugm-3,0.4,R,ugm-3,92,R,ugm-3,0.0,R,ugm-3
03-01-1991,02:00,0.1,R,ugm-3,0.4,R,ugm-3,0.6,R,ugm-3,74,R,ugm-3,0.0,R,ugm-3
03-01-1991,03:00,0.1,R,ugm-3,0.2,R,ugm-3,0.4,R,ugm-3,72,R,ugm-3,0.0,R,ugm-3
03-01-1991,04:00,0.1,R,ugm-3,0.2,R,ugm-3,0.4,R,ugm-3,72,R,ugm-3,0.0,R,ugm-3
03-01-1991,05:00,0.1,R,ugm-3,0.2,R,ugm-3,0.4,R,ugm-3,72,R,ugm-3,0.0,R,ugm-3
03-01-1991,06:00,0.1,R,ugm-3,0.2,R,ugm-3,0.4,R,ugm-3,72,R,ugm-3,0.0,R,ugm-3
03-01-1991,07:00,0.1,R,ugm-3,0.4,R,ugm-3,0.6,R,ugm-3,72,R,ugm-3,0.0,R,ugm-3
03-01-1991,08:00,0.1,R,ugm-3,0.4,R,ugm-3,0.6,R,ugm-3,72,R,ugm-3,0.0,R,ugm-3
03-01-1991,09:00,0.1,R,ugm-3,0.4,R,ugm-3,0.6,R,ugm-3,74,R,ugm-3,0.0,R,ugm-3
03-01-1991,10:00,0.1,R,ugm-3,0.6,R,ugm-3,0.8,R,ugm-3,74,R,ugm-3,0.0,R,ugm-3
03-01-1991,11:00,0.1,R,ugm-3,0.4,R,ugm-3,0.6,R,ugm-3,74,R,ugm-3,0.0,R,ugm-3
03-01-1991,12:00,0.1,R,ugm-3,0.4,R,ugm-3,0.6,R,ugm-3,76,R,ugm-3,0.0,R,ugm-3
03-01-1991,13:00,0.3,R,ugm-3,0.4,R,ugm-3,0.8,R,ugm-3,74,R,ugm-3,0.0,R,ugm-3
03-01-1991,14:00,0.3,R,ugm-3,0.4,R,ugm-3,0.8,R,ugm-3,78,R,ugm-3,0.0,R,ugm-3
03-01-1991,15:00,0.3,R,ugm-3,0.8,R,ugm-3,1.1,R,ugm-3,76,R,ugm-3,0.0,R,ugm-3
03-01-1991,16:00,0.1,R,ugm-3,0.6,R,ugm-3,0.8,R,ugm-3,72,R,ugm-3,0.0,R,ugm-3
03-01-1991,17:00,0.3,R,ugm-3,0.4,R,ugm-3,0.8,R,ugm-3,74,R,ugm-3,0.0,R,ugm-3
03-01-1991,18:00,0.3,R,ugm-3,0.4,R,ugm-3,0.8,R,ugm-3,72,R,ugm-3,0.0,R,ugm-3
03-01-1991,19:00,0.3,R,ugm-3,0.6,R,ugm-3,1.0,R,ugm-3,70,R,ugm-3,0.0,R,ugm-3
03-01-1991,20:00,0.3,R,ugm-3,0.4,R,ugm-3,0.8,R,ugm-3,70,R,ugm-3,0.0,R,ugm-3
03-01-1991,21:00,0.3,R,ugm-3,0.4,R,ugm-3,0.8,R,ugm-3,70,R,ugm-3,0.0,R,ugm-3
03-01-1991,22:00,0.3,R,ugm-3,0.6,R,ugm-3,1.0,R,ugm-3,70,R,ugm-3,0.0,R,ugm-3
03-01-1991,23:00,0.3,R,ugm-3,0.6,R,ugm-3,1.0,R,ugm-3,70,R,ugm-3,0.0,R,ugm-3
03-01-1991,24:00,0.3,R,ugm-3,0.6,R,ugm-3,1.0,R,ugm-3,70,R,ugm-3,0.0,R,ugm-3
04-01-1991,01:00,0.1,R,ugm-3,0.6,R,ugm-3,0.8,R,ugm-3,68,R,ugm-3,0.0,R,ugm-3
04-01-1991,02:00,0.1,R,ugm-3,1.0,R,ugm-3,1.1,R,ugm-3,66,R,ugm-3,0.3,R,ugm-3
04-01-1991,03:00,0.1,R,ugm-3,1.0,R,ugm-3,1.1,R,ugm-3,64,R,ugm-3,0.0,R,ugm-3
04-01-1991,04:00,0.1,R,ugm-3,1.0,R,ugm-3,1.1,R,ugm-3,62,R,ugm-3,0.3,R,ugm-3
04-01-1991,05:00,0.1,R,ugm-3,1.1,R,ugm-3,1.3,R,ugm-3,60,R,ugm-3,0.3,R,ugm-3
04-01-1991,06:00,0.1,R,ugm-3,0.6,R,ugm-3,0.8,R,ugm-3,68,R,ugm-3,0.0,R,ugm-3
04-01-1991,07:00,0.1,R,ugm-3,0.4,R,ugm-3,0.6,R,ugm-3,68,R,ugm-3,0.0,R,ugm-3
04-01-1991,08:00,0.1,R,ugm-3,0.4,R,ugm-3,0.6,R,ugm-3,70,R,ugm-3,0.0,R,ugm-3
04-01-1991,09:00,0.1,R,ugm-3,0.4,R,ugm-3,0.6,R,ugm-3,70,R,ugm-3,0.0,R,ugm-3
04-01-1991,10:00,0.1,R,ugm-3,0.4,R,ugm-3,0.6,R,ugm-3,70,R,ugm-3,0.0,R,ugm-3
04-01-1991,11:00,0.1,R,ugm-3,0.6,R,ugm-3,0.8,R,ugm-3,70,R,ugm-3,0.0,R,ugm-3
04-01-1991,12:00,0.1,R,ugm-3,0.6,R,ugm-3,0.8,R,ugm-3,70,R,ugm-3,0.0,R,ugm-3
04-01-1991,13:00,0.1,R,ugm-3,0.6,R,ugm-3,0.8,R,ugm-3,72,R,ugm-3,0.0,R,ugm-3
04-01-1991,14:00,0.1,R,ugm-3,0.4,R,ugm-3,0.6,R,ugm-3,74,R,ugm-3,0.0,R,ugm-3
04-01-1991,15:00,0.1,R,ugm-3,0.6,R,ugm-3,0.8,R,ugm-3,76,R,ugm-3,0.0,R,ugm-3
04-01-1991,16:00,0.1,R,ugm-3,0.6,R,ugm-3,0.8,R,ugm-3,76,R,ugm-3,0.0,R,ugm-3
04-01-1991,17:00,0.3,R,ugm-3,0.4,R,ugm-3,0.8,R,ugm-3,76,R,ugm-3,0.0,R,ugm-3
04-01-1991,18:00,0.1,R,ugm-3,0.4,R,ugm-3,0.6,R,ugm-3,76,R,ugm-3,0.0,R,ugm-3
04-01-1991,19:00,0.1,R,ugm-3,0.4,R,ugm-3,0.6,R,ugm-3,76,R,ugm-3,0.0,R,ugm-3
04-01-1991,20:00,0.1,R,ugm-3,0.4,R,ugm-3,0.6,R,ugm-3,76,R,ugm-3,0.0,R,ugm-3
04-01-1991,21:00,0.3,R,ugm-3,0.4,R,ugm-3,0.8,R,ugm-3,72,R,ugm-3,0.0,R,ugm-3
04-01-1991,22:00,0.1,R,ugm-3,0.4,R,ugm-3,0.6,R,ugm-3,70,R,ugm-3,0.0,R,ugm-3
04-01-1991,23:00,0.1,R,ugm-3,0.4,R,ugm-3,0.6,R,ugm-3,68,R,ugm-3,0.0,R,ugm-3
04-01-1991,24:00,0.1,R,ugm-3,0.4,R,ugm-3,0.6,R,ugm-3,70,R,ugm-3,0.0,R,ugm-3
05-01-1991,01:00,0.1,R,ugm-3,0.2,R,ugm-3,0.4,R,ugm-3,72,R,ugm-3,0.0,R,ugm-3
05-01-1991,02:00,0.1,R,ugm-3,0.2,R,ugm-3,0.4,R,ugm-3,76,R,ugm-3,0.0,R,ugm-3
05-01-1991,03:00,0.1,R,ugm-3,0.4,R,ugm-3,0.6,R,ugm-3,68,R,ugm-3,0.3,R,ugm-3
05-01-1991,04:00,0.1,R,ugm-3,0.6,R,ugm-3,0.8,R,ugm-3,68,R,ugm-3,0.3,R,ugm-3
05-01-1991,05:00,0.1,R,ugm-3,0.6,R,ugm-3,0.8,R,ugm-3,68,R,ugm-3,0.3,R,ugm-3
05-01-1991,06:00,0.1,R,ugm-3,1.0,R,ugm-3,1.1,R,ugm-3,66,R,ugm-3,0.3,R,ugm-3
05-01-1991,07:00,0.1,R,ugm-3,3.4,R,ugm-3,3.6,R,ugm-3,62,R,ugm-3,2.1,R,ugm-3
05-01-1991,08:00,0.1,R,ugm-3,3.8,R,ugm-3,4.0,R,ugm-3,56,R,ugm-3,2.1,R,ugm-3
05-01-1991,09:00,0.1,R,ugm-3,3.2,R,ugm-3,3.4,R,ugm-3,56,R,ugm-3,1.6,R,ugm-3
05-01-1991,10:00,0.3,R,ugm-3,2.9,R,ugm-3,3.2,R,ugm-3,56,R,ugm-3,1.1,R,ugm-3
05-01-1991,11:00,0.3,R,ugm-3,1.0,R,ugm-3,1.3,R,ugm-3,66,R,ugm-3,0.5,R,ugm-3
05-01-1991,12:00,0.3,R,ugm-3,0.6,R,ugm-3,1.0,R,ugm-3,68,R,ugm-3,0.3,R,ugm-3
05-01-1991,13:00,0.1,R,ugm-3,0.6,R,ugm-3,0.8,R,ugm-3,66,R,ugm-3,0.3,R,ugm-3
05-01-1991,14:00,0.3,R,ugm-3,0.8,R,ugm-3,1.1,R,ugm-3,66,R,ugm-3,0.3,R,ugm-3
05-01-1991,15:00,0.1,R,ugm-3,1.5,R,ugm-3,1.7,R,ugm-3,64,R,ugm-3,0.5,R,ugm-3
05-01-1991,16:00,0.1,R,ugm-3,1.9,R,ugm-3,2.1,R,ugm-3,62,R,ugm-3,0.3,R,ugm-3
05-01-1991,17:00,0.1,R,ugm-3,1.1,R,ugm-3,1.3,R,ugm-3,62,R,ugm-3,0.3,R,ugm-3
05-01-1991,18:00,0.1,R,ugm-3,1.7,R,ugm-3,1.9,R,ugm-3,62,R,ugm-3,0.3,R,ugm-3
05-01-1991,19:00,0.1,R,ugm-3,2.5,R,ugm-3,2.7,R,ugm-3,60,R,ugm-3,0.3,R,ugm-3
05-01-1991,20:00,0.1,R,ugm-3,2.3,R,ugm-3,2.5,R,ugm-3,56,R,ugm-3,0.3,R,ugm-3
05-01-1991,21:00,0.1,R,ugm-3,2.1,R,ugm-3,2.3,R,ugm-3,56,R,ugm-3,0.3,R,ugm-3
05-01-1991,22:00,0.1,R,ugm-3,1.7,R,ugm-3,1.9,R,ugm-3,58,R,ugm-3,0.3,R,ugm-3
05-01-1991,23:00,0.1,R,ugm-3,2.1,R,ugm-3,2.3,R,ugm-3,60,R,ugm-3,0.5,R,ugm-3
05-01-1991,24:00,0.1,R,ugm-3,1.7,R,ugm-3,1.9,R,ugm-3,60,R,ugm-3,0.5,R,ugm-3
06-01-1991,01:00,0.1,R,ugm-3,1.1,R,ugm-3,1.3,R,ugm-3,64,R,ugm-3,0.3,R,ugm-3
06-01-1991,02:00,0.1,R,ugm-3,1.1,R,ugm-3,1.3,R,ugm-3,66,R,ugm-3,0.5,R,ugm-3
06-01-1991,03:00,0.0,R,ugm-3,1.1,R,ugm-3,1.1,R,ugm-3,68,R,ugm-3,0.5,R,ugm-3
06-01-1991,04:00,0.1,R,ugm-3,0.8,R,ugm-3,1.0,R,ugm-3,70,R,ugm-3,0.3,R,ugm-3
06-01-1991,05:00,0.1,R,ugm-3,0.6,R,ugm-3,0.8,R,ugm-3,72,R,ugm-3,0.0,R,ugm-3
06-01-1991,06:00,0.1,R,ugm-3,0.6,R,ugm-3,0.8,R,ugm-3,72,R,ugm-3,0.0,R,ugm-3
06-01-1991,07:00,0.1,R,ugm-3,1.0,R,ugm-3,1.1,R,ugm-3,72,R,ugm-3,0.3,R,ugm-3
06-01-1991,08:00,0.1,R,ugm-3,0.8,R,ugm-3,1.0,R,ugm-3,74,R,ugm-3,0.0,R,ugm-3
06-01-1991,09:00,0.1,R,ugm-3,0.8,R,ugm-3,1.0,R,ugm-3,74,R,ugm-3,0.0,R,ugm-3
06-01-1991,10:00,0.1,R,ugm-3,0.6,R,ugm-3,0.8,R,ugm-3,72,R,ugm-3,0.0,R,ugm-3
06-01-1991,11:00,0.3,R,ugm-3,0.4,R,ugm-3,0.8,R,ugm-3,70,R,ugm-3,0.0,R,ugm-3
06-01-1991,12:00,0.1,R,ugm-3,0.4,R,ugm-3,0.6,R,ugm-3,68,R,ugm-3,0.0,R,ugm-3
06-01-1991,13:00,0.1,R,ugm-3,0.4,R,ugm-3,0.6,R,ugm-3,68,R,ugm-3,0.0,R,ugm-3
06-01-1991,14:00,0.1,R,ugm-3,0.4,R,ugm-3,0.6,R,ugm-3,70,R,ugm-3,0.0,R,ugm-3
06-01-1991,15:00,0.1,R,ugm-3,0.4,R,ugm-3,0.6,R,ugm-3,72,R,ugm-3,0.0,R,ugm-3
06-01-1991,16:00,0.1,R,ugm-3,0.4,R,ugm-3,0.6,R,ugm-3,70,R,ugm-3,0.0,R,ugm-3
06-01-1991,17:00,0.1,R,ugm-3,0.4,R,ugm-3,0.6,R,ugm-3,72,R,ugm-3,0.0,R,ugm-3
06-01-1991,18:00,0.1,R,ugm-3,0.4,R,ugm-3,0.6,R,ugm-3,74,R,ugm-3,0.0,R,ugm-3
06-01-1991,19:00,0.1,R,ugm-3,0.4,R,ugm-3,0.6,R,ugm-3,72,R,ugm-3,0.0,R,ugm-3
06-01-1991,20:00,0.1,R,ugm-3,0.4,R,ugm-3,0.6,R,ugm-3,70,R,ugm-3,0.0,R,ugm-3
06-01-1991,21:00,0.1,R,ugm-3,0.4,R,ugm-3,0.6,R,ugm-3,70,R,ugm-3,0.0,R,ugm-3
06-01-1991,22:00,0.1,R,ugm-3,0.4,R,ugm-3,0.6,R,ugm-3,70,R,ugm-3,0.0,R,ugm-3
06-01-1991,23:00,0.1,R,ugm-3,0.2,R,ugm-3,0.4,R,ugm-3,70,R,ugm-3,0.0,R,ugm-3
06-01-1991,24:00,0.1,R,ugm-3,0.4,R,ugm-3,0.6,R,ugm-3,70,R,ugm-3,0.0,R,ugm-3
07-01-1991,01:00,0.3,R,ugm-3,0.2,R,ugm-3,0.6,R,ugm-3,70,R,ugm-3,0.0,R,ugm-3
07-01-1991,02:00,0.3,R,ugm-3,0.2,R,ugm-3,0.6,R,ugm-3,68,R,ugm-3,0.0,R,ugm-3
07-01-1991,03:00,0.3,R,ugm-3,0.2,R,ugm-3,0.6,R,ugm-3,68,R,ugm-3,0.0,R,ugm-3
07-01-1991,04:00,0.3,R,ugm-3,0.2,R,ugm-3,0.6,R,ugm-3,66,R,ugm-3,0.0,R,ugm-3
07-01-1991,05:00,0.3,R,ugm-3,0.2,R,ugm-3,0.6,R,ugm-3,64,R,ugm-3,0.0,R,ugm-3
07-01-1991,06:00,0.3,R,ugm-3,0.4,R,ugm-3,0.8,R,ugm-3,62,R,ugm-3,0.0,R,ugm-3
07-01-1991,07:00,0.3,R,ugm-3,0.4,R,ugm-3,0.8,R,ugm-3,60,R,ugm-3,0.0,R,ugm-3
07-01-1991,08:00,0.3,R,ugm-3,0.4,R,ugm-3,0.8,R,ugm-3,60,R,ugm-3,0.0,R,ugm-3
07-01-1991,09:00,0.3,R,ugm-3,0.4,R,ugm-3,0.8,R,ugm-3,62,R,ugm-3,0.0,R,ugm-3
07-01-1991,10:00,0.3,R,ugm-3,0.2,R,ugm-3,0.6,R,ugm-3,60,R,ugm-3,0.0,R,ugm-3
07-01-1991,11:00,0.3,R,ugm-3,0.2,R,ugm-3,0.6,R,ugm-3,64,R,ugm-3,0.0,R,ugm-3
07-01-1991,12:00,0.3,R,ugm-3,0.4,R,ugm-3,0.8,R,ugm-3,64,R,ugm-3,0.0,R,ugm-3
07-01-1991,13:00,0.3,R,ugm-3,0.4,R,ugm-3,0.8,R,ugm-3,64,R,ugm-3,0.0,R,ugm-3
07-01-1991,14:00,0.3,R,ugm-3,0.4,R,ugm-3,0.8,R,ugm-3,62,R,ugm-3,0.0,R,ugm-3
07-01-1991,15:00,0.3,R,ugm-3,0.4,R,ugm-3,0.8,R,ugm-3,60,R,ugm-3,0.8,R,ugm-3
07-01-1991,16:00,0.3,R,ugm-3,0.4,R,ugm-3,0.8,R,ugm-3,64,R,ugm-3,0.3,R,ugm-3
07-01-1991,17:00,0.3,R,ugm-3,0.4,R,ugm-3,0.8,R,ugm-3,62,R,ugm-3,0.3,R,ugm-3
07-01-1991,18:00,0.3,R,ugm-3,0.4,R,ugm-3,0.8,R,ugm-3,60,R,ugm-3,0.3,R,ugm-3
07-01-1991,19:00,0.3,R,ugm-3,0.6,R,ugm-3,1.0,R,ugm-3,60,R,ugm-3,2.1,R,ugm-3
07-01-1991,20:00,0.3,R,ugm-3,0.4,R,ugm-3,0.8,R,ugm-3,58,R,ugm-3,0.5,R,ugm-3
07-01-1991,21:00,0.3,R,ugm-3,1.7,R,ugm-3,2.1,R,ugm-3,54,R,ugm-3,0.5,R,ugm-3
07-01-1991,22:00,0.3,R,ugm-3,2.3,R,ugm-3,2.7,R,ugm-3,52,R,ugm-3,0.5,R,ugm-3
07-01-1991,23:00,0.3,R,ugm-3,1.0,R,ugm-3,1.3,R,ugm-3,60,R,ugm-3,0.3,R,ugm-3
07-01-1991,24:00,0.3,R,ugm-3,0.8,R,ugm-3,1.1,R,ugm-3,60,R,ugm-3,0.3,R,ugm-3
08-01-1991,01:00,0.3,R,ugm-3,0.6,R,ugm-3,1.0,R,ugm-3,66,R,ugm-3,0.3,R,ugm-3
08-01-1991,02:00,0.3,R,ugm-3,0.4,R,ugm-3,0.8,R,ugm-3,68,R,ugm-3,0.3,R,ugm-3
08-01-1991,03:00,0.3,R,ugm-3,0.4,R,ugm-3,0.8,R,ugm-3,72,R,ugm-3,0.3,R,ugm-3
08-01-1991,04:00,0.3,R,ugm-3,0.2,R,ugm-3,0.6,R,ugm-3,76,R,ugm-3,0.0,R,ugm-3
08-01-1991,05:00,0.3,R,ugm-3,0.2,R,ugm-3,0.6,R,ugm-3,78,R,ugm-3,0.0,R,ugm-3
08-01-1991,06:00,0.3,R,ugm-3,0.2,R,ugm-3,0.6,R,ugm-3,82,R,ugm-3,0.0,R,ugm-3
08-01-1991,07:00,0.3,R,ugm-3,0.2,R,ugm-3,0.6,R,ugm-3,80,R,ugm-3,0.0,R,ugm-3
08-01-1991,08:00,0.3,R,ugm-3,0.2,R,ugm-3,0.6,R,ugm-3,82,R,ugm-3,0.0,R,ugm-3
08-01-1991,09:00,0.3,R,ugm-3,0.4,R,ugm-3,0.8,R,ugm-3,80,R,ugm-3,0.0,R,ugm-3
08-01-1991,10:00,0.3,R,ugm-3,0.8,R,ugm-3,1.1,R,ugm-3,76,R,ugm-3,0.8,R,ugm-3
08-01-1991,11:00,0.3,R,ugm-3,0.6,R,ugm-3,1.0,R,ugm-3,76,R,ugm-3,0.3,R,ugm-3
08-01-1991,12:00,0.3,R,ugm-3,0.6,R,ugm-3,1.0,R,ugm-3,76,R,ugm-3,0.3,R,ugm-3
08-01-1991,13:00,0.3,R,ugm-3,0.4,R,ugm-3,0.8,R,ugm-3,74,R,ugm-3,0.3,R,ugm-3
08-01-1991,14:00,0.3,R,ugm-3,0.6,R,ugm-3,1.0,R,ugm-3,74,R,ugm-3,0.3,R,ugm-3
08-01-1991,15:00,0.4,R,ugm-3,0.8,R,ugm-3,1.3,R,ugm-3,70,R,ugm-3,0.3,R,ugm-3
08-01-1991,16:00,0.3,R,ugm-3,1.0,R,ugm-3,1.3,R,ugm-3,66,R,ugm-3,0.3,R,ugm-3
08-01-1991,17:00,0.3,R,ugm-3,0.8,R,ugm-3,1.1,R,ugm-3,66,R,ugm-3,0.0,R,ugm-3
08-01-1991,18:00,0.3,R,ugm-3,0.8,R,ugm-3,1.1,R,ugm-3,66,R,ugm-3,0.0,R,ugm-3
08-01-1991,19:00,0.3,R,ugm-3,0.8,R,ugm-3,1.1,R,ugm-3,66,R,ugm-3,0.8,R,ugm-3
08-01-1991,20:00,0.3,R,ugm-3,1.0,R,ugm-3,1.3,R,ugm-3,64,R,ugm-3,0.5,R,ugm-3
08-01-1991,21:00,0.3,R,ugm-3,1.0,R,ugm-3,1.3,R,ugm-3,64,R,ugm-3,0.3,R,ugm-3
08-01-1991,22:00,0.3,R,ugm-3,0.8,R,ugm-3,1.1,R,ugm-3,64,R,ugm-3,0.3,R,ugm-3
08-01-1991,23:00,0.3,R,ugm-3,0.8,R,ugm-3,1.1,R,ugm-3,62,R,ugm-3,0.5,R,ugm-3
08-01-1991,24:00,0.3,R,ugm-3,0.8,R,ugm-3,1.1,R,ugm-3,64,R,ugm-3,0.3,R,ugm-3
09-01-1991,01:00,0.1,R,ugm-3,1.0,R,ugm-3,1.1,R,ugm-3,62,R,ugm-3,0.3,R,ugm-3
09-01-1991,02:00,0.1,R,ugm-3,0.8,R,ugm-3,1.0,R,ugm-3,62,R,ugm-3,0.3,R,ugm-3
09-01-1991,03:00,0.1,R,ugm-3,0.8,R,ugm-3,1.0,R,ugm-3,66,R,ugm-3,0.3,R,ugm-3
09-01-1991,04:00,0.1,R,ugm-3,0.4,R,ugm-3,0.6,R,ugm-3,72,R,ugm-3,0.3,R,ugm-3
09-01-1991,05:00,0.1,R,ugm-3,0.4,R,ugm-3,0.6,R,ugm-3,74,R,ugm-3,0.0,R,ugm-3
09-01-1991,06:00,0.1,R,ugm-3,0.2,R,ugm-3,0.4,R,ugm-3,74,R,ugm-3,0.0,R,ugm-3
09-01-1991,07:00,0.1,R,ugm-3,0.2,R,ugm-3,0.4,R,ugm-3,74,R,ugm-3,0.0,R,ugm-3
09-01-1991,08:00,0.1,R,ugm-3,0.4,R,ugm-3,0.6,R,ugm-3,72,R,ugm-3,0.3,R,ugm-3
09-01-1991,09:00,0.1,R,ugm-3,0.4,R,ugm-3,0.6,R,ugm-3,72,R,ugm-3,0.0,R,ugm-3
09-01-1991,10:00,0.1,R,ugm-3,0.4,R,ugm-3,0.6,R,ugm-3,70,R,ugm-3,0.5,R,ugm-3
09-01-1991,11:00,0.1,R,ugm-3,0.4,R,ugm-3,0.6,R,ugm-3,70,R,ugm-3,0.3,R,ugm-3
09-01-1991,12:00,0.1,R,ugm-3,0.4,R,ugm-3,0.6,R,ugm-3,70,R,ugm-3,0.0,R,ugm-3
09-01-1991,13:00,0.1,R,ugm-3,0.4,R,ugm-3,0.6,R,ugm-3,70,R,ugm-3,0.5,R,ugm-3
09-01-1991,14:00,0.1,R,ugm-3,0.4,R,ugm-3,0.6,R,ugm-3,68,R,ugm-3,1.1,R,ugm-3
09-01-1991,15:00,0.3,R,ugm-3,1.3,R,ugm-3,1.7,R,ugm-3,68,R,ugm-3,0.5,R,ugm-3
09-01-1991,16:00,0.0,R,ugm-3,1.5,R,ugm-3,1.5,R,ugm-3,72,R,ugm-3,1.1,R,ugm-3
09-01-1991,17:00,0.3,R,ugm-3,2.5,R,ugm-3,2.9,R,ugm-3,70,R,ugm-3,1.1,R,ugm-3
09-01-1991,18:00,0.0,R,ugm-3,2.5,R,ugm-3,2.5,R,ugm-3,68,R,ugm-3,0.8,R,ugm-3
09-01-1991,19:00,0.1,R,ugm-3,2.7,R,ugm-3,2.9,R,ugm-3,70,R,ugm-3,0.8,R,ugm-3
09-01-1991,20:00,0.1,R,ugm-3,2.3,R,ugm-3,2.5,R,ugm-3,72,R,ugm-3,0.8,R,ugm-3
09-01-1991,21:00,0.1,R,ugm-3,1.5,R,ugm-3,1.7,R,ugm-3,72,R,ugm-3,0.5,R,ugm-3
09-01-1991,22:00,0.1,R,ugm-3,1.1,R,ugm-3,1.3,R,ugm-3,72,R,ugm-3,0.3,R,ugm-3
09-01-1991,23:00,0.1,R,ugm-3,1.0,R,ugm-3,1.1,R,ugm-3,74,R,ugm-3,0.3,R,ugm-3
09-01-1991,24:00,0.1,R,ugm-3,1.5,R,ugm-3,1.7,R,ugm-3,72,R,ugm-3,0.5,R,ugm-3
10-01-1991,01:00,0.0,R,ugm-3,2.5,R,ugm-3,2.5,R,ugm-3,70,R,ugm-3,1.6,R,ugm-3
10-01-1991,02:00,0.0,R,ugm-3,2.9,R,ugm-3,2.9,R,ugm-3,68,R,ugm-3,1.9,R,ugm-3
10-01-1991,03:00,0.0,R,ugm-3,2.5,R,ugm-3,2.5,R,ugm-3,68,R,ugm-3,1.3,R,ugm-3
10-01-1991,04:00,0.0,R,ugm-3,2.1,R,ugm-3,2.1,R,ugm-3,68,R,ugm-3,0.8,R,ugm-3
10-01-1991,05:00,0.0,R,ugm-3,1.7,R,ugm-3,1.7,R,ugm-3,70,R,ugm-3,0.8,R,ugm-3
10-01-1991,06:00,0.1,R,ugm-3,1.1,R,ugm-3,1.3,R,ugm-3,70,R,ugm-3,0.5,R,ugm-3
10-01-1991,07:00,0.0,R,ugm-3,1.0,R,ugm-3,1.0,R,ugm-3,70,R,ugm-3,0.5,R,ugm-3
10-01-1991,08:00,0.0,R,ugm-3,1.0,R,ugm-3,1.0,R,ugm-3,72,R,ugm-3,0.5,R,ugm-3
10-01-1991,09:00,0.0,R,ugm-3,1.1,R,ugm-3,1.1,R,ugm-3,70,R,ugm-3,0.3,R,ugm-3
10-01-1991,10:00,0.1,R,ugm-3,1.1,R,ugm-3,1.3,R,ugm-3,68,R,ugm-3,0.5,R,ugm-3
10-01-1991,11:00,0.1,R,ugm-3,1.0,R,ugm-3,1.1,R,ugm-3,68,R,ugm-3,0.3,R,ugm-3
10-01-1991,12:00,0.1,R,ugm-3,0.6,R,ugm-3,0.8,R,ugm-3,80,R,ugm-3,0.3,R,ugm-3
10-01-1991,13:00,0.1,R,ugm-3,0.4,R,ugm-3,0.6,R,ugm-3,78,R,ugm-3,0.3,R,ugm-3
10-01-1991,14:00,0.1,R,ugm-3,0.4,R,ugm-3,0.6,R,ugm-3,76,R,ugm-3,0.3,R,ugm-3
10-01-1991,15:00,0.0,R,ugm-3,0.4,R,ugm-3,0.4,R,ugm-3,76,R,ugm-3,0.3,R,ugm-3
10-01-1991,16:00,0.0,R,ugm-3,0.4,R,ugm-3,0.4,R,ugm-3,76,R,ugm-3,0.3,R,ugm-3
10-01-1991,17:00,0.0,R,ugm-3,0.4,R,ugm-3,0.4,R,ugm-3,76,R,ugm-3,0.3,R,ugm-3
10-01-1991,18:00,0.0,R,ugm-3,0.4,R,ugm-3,0.4,R,ugm-3,78,R,ugm-3,0.3,R,ugm-3
10-01-1991,19:00,0.0,R,ugm-3,0.6,R,ugm-3,0.6,R,ugm-3,78,R,ugm-3,0.3,R,ugm-3
10-01-1991,20:00,0.0,R,ugm-3,0.6,R,ugm-3,0.6,R,ugm-3,78,R,ugm-3,0.3,R,ugm-3
10-01-1991,21:00,0.0,R,ugm-3,0.4,R,ugm-3,0.4,R,ugm-3,80,R,ugm-3,0.3,R,ugm-3
10-01-1991,22:00,0.0,R,ugm-3,0.2,R,ugm-3,0.2,R,ugm-3,82,R,ugm-3,0.3,R,ugm-3
10-01-1991,23:00,0.0,R,ugm-3,0.4,R,ugm-3,0.4,R,ugm-3,80,R,ugm-3,0.3,R,ugm-3
10-01-1991,24:00,0.0,R,ugm-3,0.2,R,ugm-3,0.2,R,ugm-3,78,R,ugm-3,0.3,R,ugm-3
11-01-1991,01:00,0.1,R,ugm-3,0.4,R,ugm-3,0.6,R,ugm-3,78,R,ugm-3,0.3,R,ugm-3
11-01-1991,02:00,0.1,R,ugm-3,0.4,R,ugm-3,0.6,R,ugm-3,76,R,ugm-3,0.0,R,ugm-3
11-01-1991,03:00,0.1,R,ugm-3,0.4,R,ugm-3,0.6,R,ugm-3,72,R,ugm-3,0.3,R,ugm-3
11-01-1991,04:00,0.1,R,ugm-3,0.4,R,ugm-3,0.6,R,ugm-3,70,R,ugm-3,0.3,R,ugm-3
11-01-1991,05:00,0.1,R,ugm-3,0.4,R,ugm-3,0.6,R,ugm-3,70,R,ugm-3,0.3,R,ugm-3
11-01-1991,06:00,0.1,R,ugm-3,0.4,R,ugm-3,0.6,R,ugm-3,68,R,ugm-3,0.3,R,ugm-3
11-01-1991,07:00,0.1,R,ugm-3,0.4,R,ugm-3,0.6,R,ugm-3,66,R,ugm-3,0.3,R,ugm-3
11-01-1991,08:00,0.1,R,ugm-3,0.4,R,ugm-3,0.6,R,ugm-3,68,R,ugm-3,0.3,R,ugm-3
11-01-1991,09:00,0.1,R,ugm-3,0.4,R,ugm-3,0.6,R,ugm-3,66,R,ugm-3,0.3,R,ugm-3
11-01-1991,10:00,,,,,,,,,,,,,,,
11-01-1991,11:00,,,,,,,,,,,,,,,
11-01-1991,12:00,,,,,,,,,,,,,,,
11-01-1991,13:00,0.3,R,ugm-3,0.6,R,ugm-3,1.0,R,ugm-3,74,R,ugm-3,0.3,R,ugm-3
11-01-1991,14:00,0.3,R,ugm-3,0.4,R,ugm-3,0.8,R,ugm-3,74,R,ugm-3,0.3,R,ugm-3
11-01-1991,15:00,0.3,R,ugm-3,0.4,R,ugm-3,0.8,R,ugm-3,74,R,ugm-3,0.3,R,ugm-3
11-01-1991,16:00,0.3,R,ugm-3,0.4,R,ugm-3,0.8,R,ugm-3,74,R,ugm-3,0.3,R,ugm-3
11-01-1991,17:00,0.1,R,ugm-3,0.6,R,ugm-3,0.8,R,ugm-3,68,R,ugm-3,0.3,R,ugm-3
11-01-1991,18:00,0.1,R,ugm-3,0.4,R,ugm-3,0.6,R,ugm-3,64,R,ugm-3,0.3,R,ugm-3
11-01-1991,19:00,0.1,R,ugm-3,0.6,R,ugm-3,0.8,R,ugm-3,64,R,ugm-3,0.3,R,ugm-3
11-01-1991,20:00,0.1,R,ugm-3,0.6,R,ugm-3,0.8,R,ugm-3,62,R,ugm-3,0.3,R,ugm-3
11-01-1991,21:00,0.1,R,ugm-3,0.6,R,ugm-3,0.8,R,ugm-3,62,R,ugm-3,0.3,R,ugm-3
11-01-1991,22:00,0.1,R,ugm-3,0.6,R,ugm-3,0.8,R,ugm-3,60,R,ugm-3,0.3,R,ugm-3
11-01-1991,23:00,0.1,R,ugm-3,0.6,R,ugm-3,0.8,R,ugm-3,60,R,ugm-3,0.3,R,ugm-3
11-01-1991,24:00,0.1,R,ugm-3,0.6,R,ugm-3,0.8,R,ugm-3,58,R,ugm-3,0.3,R,ugm-3
12-01-1991,01:00,0.1,R,ugm-3,0.8,R,ugm-3,1.0,R,ugm-3,58,R,ugm-3,0.3,R,ugm-3
12-01-1991,02:00,0.1,R,ugm-3,1.0,R,ugm-3,1.1,R,ugm-3,60,R,ugm-3,0.5,R,ugm-3
12-01-1991,03:00,0.1,R,ugm-3,0.6,R,ugm-3,0.8,R,ugm-3,66,R,ugm-3,0.3,R,ugm-3
12-01-1991,04:00,0.1,R,ugm-3,0.6,R,ugm-3,0.8,R,ugm-3,64,R,ugm-3,0.3,R,ugm-3
12-01-1991,05:00,0.1,R,ugm-3,1.0,R,ugm-3,1.1,R,ugm-3,64,R,ugm-3,0.5,R,ugm-3
12-01-1991,06:00,0.1,R,ugm-3,1.7,R,ugm-3,1.9,R,ugm-3,66,R,ugm-3,0.5,R,ugm-3
12-01-1991,07:00,0.1,R,ugm-3,2.3,R,ugm-3,2.5,R,ugm-3,66,R,ugm-3,0.5,R,ugm-3
12-01-1991,08:00,0.1,R,ugm-3,0.8,R,ugm-3,1.0,R,ugm-3,72,R,ugm-3,0.3,R,ugm-3
12-01-1991,09:00,0.3,R,ugm-3,0.8,R,ugm-3,1.1,R,ugm-3,72,R,ugm-3,0.3,R,ugm-3
12-01-1991,10:00,0.3,R,ugm-3,0.8,R,ugm-3,1.1,R,ugm-3,70,R,ugm-3,0.5,R,ugm-3
12-01-1991,11:00,0.1,R,ugm-3,0.6,R,ugm-3,0.8,R,ugm-3,72,R,ugm-3,0.3,R,ugm-3
12-01-1991,12:00,0.1,R,ugm-3,0.4,R,ugm-3,0.6,R,ugm-3,72,R,ugm-3,0.3,R,ugm-3
12-01-1991,13:00,0.1,R,ugm-3,0.4,R,ugm-3,0.6,R,ugm-3,72,R,ugm-3,0.3,R,ugm-3
12-01-1991,14:00,0.3,R,ugm-3,1.1,R,ugm-3,1.5,R,ugm-3,70,R,ugm-3,0.5,R,ugm-3
12-01-1991,15:00,0.6,R,ugm-3,4.0,R,ugm-3,5.0,R,ugm-3,66,R,ugm-3,1.9,R,ugm-3
12-01-1991,16:00,0.3,R,ugm-3,0.6,R,ugm-3,1.0,R,ugm-3,70,R,ugm-3,0.3,R,ugm-3
12-01-1991,17:00,0.3,R,ugm-3,0.6,R,ugm-3,1.0,R,ugm-3,70,R,ugm-3,0.3,R,ugm-3
12-01-1991,18:00,0.1,R,ugm-3,0.6,R,ugm-3,0.8,R,ugm-3,70,R,ugm-3,0.3,R,ugm-3
12-01-1991,19:00,0.3,R,ugm-3,0.4,R,ugm-3,0.8,R,ugm-3,70,R,ugm-3,0.3,R,ugm-3
12-01-1991,20:00,0.3,R,ugm-3,0.2,R,ugm-3,0.6,R,ugm-3,72,R,ugm-3,0.3,R,ugm-3
12-01-1991,21:00,0.1,R,ugm-3,1.0,R,ugm-3,1.1,R,ugm-3,68,R,ugm-3,0.3,R,ugm-3
12-01-1991,22:00,0.3,R,ugm-3,0.8,R,ugm-3,1.1,R,ugm-3,68,R,ugm-3,0.3,R,ugm-3
12-01-1991,23:00,0.1,R,ugm-3,0.4,R,ugm-3,0.6,R,ugm-3,70,R,ugm-3,0.3,R,ugm-3
12-01-1991,24:00,0.1,R,ugm-3,0.6,R,ugm-3,0.8,R,ugm-3,68,R,ugm-3,0.3,R,ugm-3
13-01-1991,01:00,0.0,R,ugm-3,0.8,R,ugm-3,0.8,R,ugm-3,68,R,ugm-3,0.3,R,ugm-3
13-01-1991,02:00,0.0,R,ugm-3,0.6,R,ugm-3,0.6,R,ugm-3,66,R,ugm-3,0.3,R,ugm-3
13-01-1991,03:00,0.0,R,ugm-3,0.6,R,ugm-3,0.6,R,ugm-3,68,R,ugm-3,0.3,R,ugm-3
13-01-1991,04:00,0.0,R,ugm-3,0.6,R,ugm-3,0.6,R,ugm-3,66,R,ugm-3,0.3,R,ugm-3
13-01-1991,05:00,0.0,R,ugm-3,0.6,R,ugm-3,0.6,R,ugm-3,66,R,ugm-3,0.3,R,ugm-3
13-01-1991,06:00,0.0,R,ugm-3,0.6,R,ugm-3,0.6,R,ugm-3,66,R,ugm-3,0.3,R,ugm-3
13-01-1991,07:00,0.0,R,ugm-3,0.4,R,ugm-3,0.4,R,ugm-3,62,R,ugm-3,0.3,R,ugm-3
13-01-1991,08:00,0.0,R,ugm-3,0.4,R,ugm-3,0.4,R,ugm-3,64,R,ugm-3,0.3,R,ugm-3
13-01-1991,09:00,0.0,R,ugm-3,0.6,R,ugm-3,0.6,R,ugm-3,66,R,ugm-3,0.3,R,ugm-3
13-01-1991,10:00,0.0,R,ugm-3,0.4,R,ugm-3,0.4,R,ugm-3,68,R,ugm-3,0.3,R,ugm-3
13-01-1991,11:00,0.0,R,ugm-3,0.6,R,ugm-3,0.6,R,ugm-3,64,R,ugm-3,0.3,R,ugm-3
13-01-1991,12:00,0.0,R,ugm-3,0.6,R,ugm-3,0.6,R,ugm-3,64,R,ugm-3,0.3,R,ugm-3
13-01-1991,13:00,0.4,R,ugm-3,0.4,R,ugm-3,1.0,R,ugm-3,66,R,ugm-3,0.3,R,ugm-3
13-01-1991,14:00,0.4,R,ugm-3,0.6,R,ugm-3,1.1,R,ugm-3,66,R,ugm-3,0.5,R,ugm-3
13-01-1991,15:00,0.4,R,ugm-3,1.0,R,ugm-3,1.5,R,ugm-3,68,R,ugm-3,2.4,R,ugm-3
13-01-1991,16:00,0.4,R,ugm-3,0.8,R,ugm-3,1.3,R,ugm-3,66,R,ugm-3,0.5,R,ugm-3
13-01-1991,17:00,0.4,R,ugm-3,1.0,R,ugm-3,1.5,R,ugm-3,68,R,ugm-3,0.8,R,ugm-3
13-01-1991,18:00,0.4,R,ugm-3,1.0,R,ugm-3,1.5,R,ugm-3,68,R,ugm-3,0.5,R,ugm-3
13-01-1991,19:00,0.4,R,ugm-3,1.0,R,ugm-3,1.5,R,ugm-3,66,R,ugm-3,0.8,R,ugm-3
13-01-1991,20:00,0.4,R,ugm-3,1.0,R,ugm-3,1.5,R,ugm-3,68,R,ugm-3,0.8,R,ugm-3
13-01-1991,21:00,0.4,R,ugm-3,1.0,R,ugm-3,1.5,R,ugm-3,66,R,ugm-3,0.8,R,ugm-3
13-01-1991,22:00,0.4,R,ugm-3,1.0,R,ugm-3,1.5,R,ugm-3,68,R,ugm-3,1.3,R,ugm-3
13-01-1991,23:00,0.4,R,ugm-3,1.3,R,ugm-3,1.9,R,ugm-3,66,R,ugm-3,2.4,R,ugm-3
13-01-1991,24:00,0.4,R,ugm-3,2.3,R,ugm-3,2.9,R,ugm-3,66,R,ugm-3,3.7,R,ugm-3
14-01-1991,01:00,0.0,R,ugm-3,3.4,R,ugm-3,3.4,R,ugm-3,64,R,ugm-3,4.8,R,ugm-3